STARLINK-1818 (46716 NORAD) Tracking and Keplerian Element Data

This shows tracking and keplerian element data for the satellite.

Feedback or suggestion? Click here.




ElementValue
Catalog46716
NameSTARLINK-1818
Epoch Orbit609
Epoch Day328.16667824
Epoch Year2020
RAAN294.2981
Inclination53.053
Eccentricity0.0001485
Argument of Perigee55.2281
Mean Anonmoly157.3956
Mean Motion15.43887983
Decay Rate-0.01088098
L11 46716U 20073AY 20328.16667824 -.01088098 00000-0 -25690-1 0 9990
L22 46716 53.0530 294.2981 0001485 55.2281 157.3956 15.43887983 6095

Live tracking and technical data element details for STARLINK-1818 (NORAD 46716). STARLINK-1818 can be tracked NOW for your location showing map with azimuth and elevation plus other details from your city location.

Track the satellite on the map from your city or location and see movement details for azimuth, elevation, latitude, longitude, range, height, and movement on the map or in text.







IsCatalogInMostPopularTable: catalog: 46716, numindb: 10
Update: records affected: 1



GetName: 46716 STARLINK-1818

Hit Count: updated at: Tue, 24 Nov 2020 11:32:19 GMT